Tinker Air Force Base Oklahoma City US
ICAO: KTIK
IATA: TIK
Category: Large
Scheduled Services: No

Elevation: 1291 ft
TransAlt. 18000 ft.

Airport Communications:
OKE CITY APP/DEP:26.68
OKE CITY APP/DEP:120.45
ATIS:27.01
CLNC DEL:119.7
GND:121.8
ATOC:119.15
AFMC FLT TEST:38.26
PMSV METRO:26.102
507 ARW:22.845
ACC COMD POST:141.65
PTD:134.1
SFA:35.412
TWR:124.45

KTIK Zoom In..

If Map Doesn't Load, Click Here

Runways:

(A) RW 13 length 10000 ft width 200 ft
LOC 111.70 / hdg 126

(B) RW 18 length 11101 ft width 200 ft
ILS 111.30 / hdg 175

(C) RW 31 length 10000 ft width 200 ft
LOC 111.70 / hdg 306

(D) RW 36 length 11101 ft width 200 ft
ILS 109.50 / hdg 355

Location; KTIK
Day. 21 / Time. 13.56 Zulu
* Altimeter: 30.00
* Temperature: 21° c. 69.8°f.
* Wind from: KTI° Speed K kn.
Dewpoint: 21° c.
Visibility: 6 Statute Miles.
Clouds: Scattered 1400 ft.
Conditions: Rain.

KTIK 211356Z AUTO 07008KT 6SM RA SCT014 21/21 A3000 RMK AO2 DZB04E10RAB10 SLP154 P0005 T02120205


Wind From KTI°
Speed K kn.

 
 
jpsmedia.com for Web Design worldairports.se 2018   terms of use